This is the latest recevied weather packets stored in our database for station/object K42C. If no packets are shown the sender has not sent any weather packets the latest 10 day(s).
| Time | Temp. | Humidity | Pressure | Rain* | Wind** | Luminosity | Snow |
|---|---|---|---|---|---|---|---|
| 1777959146 | 13.33° C | 73% | 962.9 hPa | 0 mm | 1.79 m/s, 257° | - | - |
| 1777958748 | 13.33° C | 73% | 963 hPa | 0 mm | 2.24 m/s, 315° | - | - |
| 1777958347 | 13.33° C | 73% | 962.9 hPa | 0 mm | 0.45 m/s, 293° | - | - |
| 1777957549 | 13.33° C | 75% | 962.8 hPa | 0 mm | 0.45 m/s, 243° | - | - |
| 1777957152 | 13.33° C | 76% | 963 hPa | 0 mm | 0.45 m/s, 269° | - | - |
| 1777956751 | 13.33° C | 76% | 962.8 hPa | 0 mm | 0 m/s | - | - |
| 1777956354 | 13.89° C | 76% | 962.7 hPa | 0 mm | 0 m/s | - | - |
| 1777955952 | 13.89° C | 75% | 962.5 hPa | 0 mm | 0.45 m/s, 262° | - | - |
| 1777955555 | 13.89° C | 76% | 962.6 hPa | 0 mm | 1.34 m/s, 238° | - | - |
| 1777955154 | 13.89° C | 77% | 962.5 hPa | 0 mm | 1.34 m/s, 239° | - | - |
| 1777954757 | 13.89° C | 77% | 962.5 hPa | 0 mm | 0.45 m/s, 252° | - | - |
| 1777954356 | 13.89° C | 79% | 962.7 hPa | 0 mm | 1.34 m/s, 218° | - | - |
| 1777953958 | 13.89° C | 79% | 962.5 hPa | 0 mm | 0.89 m/s, 228° | - | - |
| 1777953557 | 14.44° C | 79% | 962.8 hPa | 0 mm | 2.24 m/s, 219° | - | - |
| 1777953160 | 14.44° C | 78% | 962.4 hPa | 0 mm | 0 m/s | - | - |
| 1777952759 | 14.44° C | 78% | 962.6 hPa | 0 mm | 1.34 m/s, 236° | - | - |
| 1777952362 | 15° C | 78% | 962.7 hPa | 0 mm | 0.89 m/s, 226° | - | - |
| 1777951961 | 15° C | 77% | 962.4 hPa | 0 mm | 2.24 m/s, 228° | - | - |
| 1777951563 | 15° C | 76% | 962.1 hPa | 0 mm | 3.13 m/s, 288° | - | - |
| 1777951162 | 15.56° C | 74% | 962.2 hPa | 0 mm | 3.13 m/s, 217° | - | - |
| 1777950765 | 15.56° C | 73% | 962.2 hPa | 0 mm | 2.24 m/s, 218° | - | - |
| 1777950364 | 16.11° C | 73% | 961.8 hPa | 0 mm | 4.02 m/s, 255° | - | - |
| 1777949967 | 16.11° C | 72% | 961.6 hPa | 0.51 mm | 0.89 m/s, 198° | - | - |
| 1777949566 | 16.67° C | 71% | 961.7 hPa | 0.51 mm | 3.13 m/s, 186° | - | - |
| 1777949169 | 17.22° C | 70% | 961.7 hPa | 0.51 mm | 2.68 m/s, 190° | - | - |
* Rain latest hour (hover to see other rain measurements)
** Current wind speed in m/s (hover to see current wind gust speed)